[[{"header":{"parameterUnit":"m.s-1","parameterCategory":1,"la1":30.2991,"la2":30.254,"lo1":-89.0895,"lo2":-89.0444,"dy":0.0017,"dx":0.0017,"nx":28,"ny":28,"refTime":"2024-04-09T09:00:00:Z","depth":0,"parameterNumber":2,"parameterNumberName":"U-component_of_WINDS"},"data":[0,0,0,0,0,0,0,0,0,0,0,0,0,0,0,0,0,0,0,0,0,0,0,0,0,0,0,0,0,0,0,0,0,0,0,0,0,0,0,0,0,0,0,0,0,0,0,0,0,0,0,0,0,0,0,0,0,0,-9.2934,-9.2935,0,-9.302,-9.3021,-9.3021,-9.2926,-9.2923,-9.2919,-9.2916,-9.2996,-9.3001,-9.3007,0,0,0,0,0,0,0,0,0,0,0,0,0,-9.2683,-9.2688,-9.2934,-9.2935,-9.2936,-9.3019,-9.3021,-9.3022,-9.2927,-9.2922,-9.2918,-9.2914,-9.2994,-9.3001,-9.3007,0,0,0,0,0,0,0,0,0,0,0,0,0,-9.2782,-9.2689,-9.2934,-9.2899,-9.2897,-9.3019,-9.3021,-9.3022,-9.2928,-9.2922,-9.2917,-9.2912,-9.2992,-9.3,-9.3008,-9.3167,0,0,-9.3033,-9.3037,0,0,0,0,0,0,0,0,-9.2777,-9.2791,-9.2903,-9.2902,-9.2899,-9.2957,-9.2961,-9.307,-9.2929,-9.2916,-9.2915,-9.2909,-9.2987,-9.2995,-9.3023,-9.317,-9.3174,-9.3034,-9.3039,-9.3042,-9.3045,0,0,0,0,0,0,0,-9.277,-9.2787,-9.2968,-9.2905,-9.2903,-9.2877,-9.2885,-9.2981,-9.298,-9.2916,-9.291,-9.2922,-9.2985,-9.3015,-9.3024,-9.3175,-9.3034,-9.3041,-9.3046,-9.3049,-9.3455,-9.3461,0,0,0,0,0,0,-9.2768,-9.2782,-9.2965,-9.297,-9.2824,-9.2886,-9.2895,-9.2944,-9.2979,-9.2979,-9.2926,-9.2917,-9.3004,-9.3014,-9.3026,-9.3211,-9.3042,-9.305,-9.3055,-9.3449,-9.3456,-9.3463,0,0,0,0,0,0,-9.2763,-9.2785,-9.2961,-9.2875,-9.2895,-9.2896,-9.2951,-9.2948,-9.2978,-9.2986,-9.2985,-9.2958,-9.3,-9.3015,-9.3132,-9.3213,-9.3054,-9.3061,-9.3442,-9.3452,-9.346,-9.3585,0,0,0,0,0,0,-9.2756,-9.2784,-9.2845,-9.2877,-9.29,-9.3068,-9.2957,-9.2954,-9.2994,-9.2982,-9.3015,-9.3016,-9.2997,-9.3121,-9.3141,-9.3221,-9.3068,-9.3435,-9.3446,-9.3457,-9.3574,-9.3597,-9.3617,0,0,0,0,0,-9.2747,-9.2876,-9.2849,-9.2871,-9.2977,-9.3073,-9.3086,-9.3063,-9.3001,-9.3061,-9.3067,-9.3015,-9.3203,-9.3134,-9.3155,-9.324,-9.343,-9.3443,-9.3456,-9.3564,-9.3593,-9.3617,0,0,0,0,0,0,-9.2851,-9.2879,-9.2849,-9.2993,-9.3032,-9.3057,-9.3132,-9.3095,-9.315,-9.3137,-9.3105,-9.3113,-9.3238,-9.3251,-9.3174,-9.3394,-9.3305,-9.3324,-9.338,-9.3407,-9.3429,-9.342,-9.3075,0,0,0,0,0,-9.2891,-9.2969,-9.2989,-9.3113,-9.3134,-9.3131,-9.3171,-9.3151,-9.3189,-9.3204,-9.3218,-9.3255,-9.3322,-9.3366,-9.3429,-9.3578,-9.3581,-9.3646,-9.3668,-9.3686,-9.37,-9.3777,-9.3805,-9.3506,-9.3506,-9.3506,0,0,-9.2973,-9.2998,-9.3048,-9.3134,-9.3162,-9.324,-9.3145,-9.3232,-9.3289,-9.3216,-9.3328,-9.334,-9.3379,-9.3513,-9.3572,-9.3527,-9.3785,-9.3703,-9.3717,-9.3721,-9.3794,-9.3822,-9.3847,-9.3515,-9.3513,-9.3512,0,0,-9.3161,-9.3191,-9.3296,-9.3327,-9.3371,-9.3368,-9.3394,-9.3426,-9.3432,-9.3545,-9.3492,-9.3559,-9.3676,-9.3705,-9.3735,-9.3939,-9.3892,-9.3961,-9.4072,-9.4147,-9.4171,-9.4192,-9.426,-9.4286,-9.3976,-9.3977,-9.3977,0,-9.3256,-9.3375,-9.3354,-9.3446,-9.3484,-9.3426,-9.3531,-9.3562,-9.3623,-9.365,-9.3601,-9.3746,-9.3769,-9.3907,-9.3957,-9.3985,-9.401,-9.3954,-9.417,-9.419,-9.4209,-9.4274,-9.43,-9.3984,-9.3983,-9.3982,-9.3982,0,-9.3488,-9.3571,-9.3651,-9.3714,-9.3762,-9.386,-9.3852,-9.3903,-9.3881,-9.3882,-9.3997,-9.4023,-9.4088,-9.4121,-9.4099,-9.4257,-9.4227,-9.4175,-9.4084,-9.4246,-9.4306,-9.4331,-9.3995,-9.3992,-9.399,-9.3988,0,0,-9.3738,-9.3792,-9.3821,-9.3849,-9.3895,-9.3958,-9.4054,-9.4121,-9.4163,-9.4209,-9.4285,-9.4388,-9.434,-9.4374,-9.4356,-9.4423,-9.4578,-9.4362,-9.4362,-9.4397,-9.4749,-9.4784,-9.4814,-9.4551,-9.4555,-9.4559,-9.4745,0,-9.3924,-9.409,-9.4076,-9.4233,-9.4308,-9.4256,-9.4339,-9.4375,-9.4381,-9.4444,-9.4449,-9.4521,-9.4455,-9.4475,-9.454,-9.4546,-9.4648,-9.4533,-9.4617,-9.462,-9.4603,-9.4846,-9.4883,-9.5057,-9.4769,-9.4773,-9.4776,0,-9.4161,-9.4218,-9.4383,-9.4419,-9.4449,-9.4524,-9.4584,-9.4647,-9.4687,-9.4686,-9.4727,-9.4697,-9.479,-9.4703,-9.4829,-9.4752,-9.4786,-9.4795,-9.4801,-9.4803,-9.4703,-9.4849,-9.5112,-9.5136,-9.4813,-9.481,-9.4808,0,-9.4322,-9.444,-9.4553,-9.4579,-9.4625,-9.4678,-9.4699,-9.4734,-9.4776,-9.4828,-9.4854,-9.4917,-9.495,-9.4998,-9.4985,-9.4923,-9.5114,-9.5026,-9.5112,-9.5112,-9.5149,-9.5146,-9.5416,-9.5182,-9.5181,-9.5181,-9.518,0,-9.4527,-9.4629,-9.4626,-9.4695,-9.4807,-9.479,-9.4901,-9.4915,-9.4948,-9.5017,-9.4978,-9.5043,-9.5025,-9.5089,-9.508,-9.5184,-9.5201,-9.52,-9.5195,-9.52,-9.52,-9.5218,-9.5203,-9.5188,-9.5186,-9.5185,-9.5184,0,-9.4722,-9.4725,-9.4844,-9.4879,-9.489,-9.4971,-9.4999,-9.5063,-9.5068,-9.5156,-9.5176,-9.5182,-9.5255,-9.525,-9.5332,-9.5326,-9.5454,-9.5437,-9.544,-9.5434,-9.5519,-9.551,-9.5805,-9.5841,-9.5589,-9.5592,-9.5594,0,-9.485,-9.4928,-9.4972,-9.5017,-9.5042,-9.5115,-9.5158,-9.5145,-9.5191,-9.5244,-9.5301,-9.5373,-9.5427,-9.5548,-9.5557,-9.562,-9.5602,-9.5701,-9.561,-9.5613,-9.5597,-9.559,-9.5596,-9.5717,-9.572,-9.5722,-9.5724,0,-9.5076,-9.5074,-9.5138,-9.5205,-9.5258,-9.5308,-9.5354,-9.5393,-9.5385,-9.5438,-9.5514,-9.5558,-9.5644,-9.5713,-9.5773,-9.5792,-9.5756,-9.5754,-9.5776,-9.5779,-9.5775,-9.5774,-9.5483,-9.5745,-9.5743,-9.5742,-9.574,-9.574,-9.5238,-9.5303,-9.5345,-9.5418,-9.5453,-9.5497,-9.5559,-9.5573,-9.5637,-9.5707,-9.5696,-9.5781,-9.5819,-9.5897,-9.5922,-9.5987,-9.595,-9.5984,-9.5991,-9.5998,-9.6006,-9.5771,-9.5998,-9.5998,-9.5997,-9.5997,-9.5996,0,-9.5457,-9.5482,-9.5551,-9.5617,-9.5675,-9.5642,-9.5691,-9.574,-9.5816,-9.5856,-9.5913,-9.6,-9.6068,-9.6086,-9.615,-9.6198,-9.6183,-9.6215,-9.6208,-9.6213,-9.6037,-9.6009,-9.6226,-9.6226,-9.6226,-9.6226,-9.6226,-9.6226,-9.5577,-9.5686,-9.569,-9.5815,-9.5839,-9.5924,-9.5954,-9.5995,-9.6027,-9.6127,-9.6184,-9.6196,-9.6227,-9.6294,-9.6354,-9.6357,-9.638,-9.6418,-9.6414,-9.6249,-9.6225,-9.6203,-9.6176,-9.6425,-9.6425,-9.6584,-9.6585,-9.6586]},{"header":{"parameterUnit":"m.s-1","parameterCategory":1,"la1":30.2991,"la2":30.254,"lo1":-89.0895,"lo2":-89.0444,"dy":0.0017,"dx":0.0017,"nx":28,"ny":28,"refTime":"2024-04-09T09:00:00:Z","depth":0,"parameterNumber":3,"parameterNumberName":"V-component_of_WINDS"},"data":[0,0,0,0,0,0,0,0,0,0,0,0,0,0,0,0,0,0,0,0,0,0,0,0,0,0,0,0,0,0,0,0,0,0,0,0,0,0,0,0,0,0,0,0,0,0,0,0,0,0,0,0,0,0,0,0,0,0,4.0756,4.0756,0,4.0821,4.0822,4.0822,4.0834,4.0834,4.0833,4.0833,4.0895,4.0897,4.0899,0,0,0,0,0,0,0,0,0,0,0,0,0,4.0639,4.0641,4.0755,4.0756,4.0757,4.0821,4.0822,4.0822,4.0834,4.0834,4.0833,4.0832,4.0894,4.0897,4.0899,0,0,0,0,0,0,0,0,0,0,0,0,0,4.0696,4.0642,4.0755,4.0771,4.0773,4.082,4.0822,4.0823,4.0834,4.0834,4.0833,4.0832,4.0893,4.0896,4.09,4.0935,0,0,4.0909,4.0911,0,0,0,0,0,0,0,0,4.0692,4.07,4.0768,4.077,4.0772,4.0819,4.0803,4.086,4.0835,4.0811,4.0833,4.0832,4.087,4.0875,4.0889,4.0938,4.0941,4.091,4.0912,4.0913,4.0914,0,0,0,0,0,0,0,4.0688,4.0697,4.0781,4.0769,4.0771,4.0774,4.0781,4.0814,4.0844,4.0813,4.0814,4.0822,4.0871,4.0886,4.089,4.0942,4.091,4.0913,4.0915,4.0916,4.1026,4.1027,0,0,0,0,0,0,4.0682,4.0694,4.0779,4.0783,4.073,4.0777,4.0785,4.0804,4.0843,4.0849,4.0822,4.0822,4.0881,4.0887,4.0893,4.0938,4.0913,4.0916,4.0918,4.1025,4.1026,4.1027,0,0,0,0,0,0,4.068,4.069,4.0776,4.0739,4.075,4.078,4.0802,4.0806,4.0821,4.0851,4.0856,4.0832,4.088,4.0888,4.0925,4.094,4.0918,4.092,4.1024,4.1025,4.1027,4.1028,0,0,0,0,0,0,4.0676,4.0689,4.0703,4.0739,4.0752,4.0809,4.0803,4.0808,4.0827,4.0827,4.0861,4.0866,4.088,4.0921,4.0929,4.0944,4.0923,4.1023,4.1025,4.1026,4.1027,4.103,4.1032,0,0,0,0,0,4.0672,4.0699,4.0703,4.0713,4.077,4.0809,4.0817,4.0834,4.0828,4.0842,4.0862,4.0865,4.0938,4.0924,4.0933,4.095,4.1022,4.1024,4.1026,4.1026,4.1029,4.1032,0,0,0,0,0,0,4.0661,4.0704,4.0709,4.0749,4.0776,4.0811,4.083,4.0836,4.0864,4.0863,4.0882,4.0889,4.0926,4.0942,4.0926,4.0988,4.0979,4.0983,4.0976,4.0979,4.0982,4.0977,4.0926,0,0,0,0,0,4.0664,4.0693,4.0728,4.076,4.0773,4.0799,4.0817,4.0828,4.0856,4.0867,4.0889,4.0915,4.0945,4.0963,4.0991,4.103,4.1038,4.1047,4.1049,4.1051,4.1054,4.1078,4.1082,4.1035,4.1035,4.1035,0,0,4.0668,4.0695,4.0712,4.0758,4.0781,4.081,4.0809,4.0839,4.0861,4.0871,4.0909,4.0926,4.0957,4.0996,4.1014,4.101,4.1069,4.1054,4.1055,4.1057,4.108,4.1085,4.1089,4.1036,4.1036,4.1036,0,0,4.0692,4.0715,4.0745,4.0769,4.0803,4.0821,4.0828,4.0864,4.0877,4.0915,4.0924,4.095,4.1,4.1022,4.1039,4.1076,4.108,4.1084,4.1097,4.112,4.1123,4.1127,4.114,4.1145,4.1088,4.1088,4.1088,0,4.0692,4.0738,4.0759,4.0791,4.0811,4.0825,4.0855,4.0876,4.0918,4.0931,4.0927,4.0992,4.1013,4.1058,4.1068,4.1081,4.109,4.108,4.1121,4.1125,4.1129,4.1142,4.1147,4.1088,4.1088,4.1088,4.1088,0,4.0738,4.077,4.079,4.0833,4.0856,4.0887,4.0912,4.0933,4.0943,4.0961,4.1001,4.1028,4.1063,4.1075,4.1083,4.1122,4.1119,4.1118,4.1109,4.1133,4.1146,4.1151,4.1089,4.1088,4.1088,4.1088,0,0,4.0754,4.0811,4.0818,4.0838,4.0879,4.0904,4.0936,4.0973,4.099,4.1019,4.1047,4.109,4.1091,4.1111,4.1123,4.1143,4.1172,4.114,4.1141,4.1145,4.1217,4.1217,4.1223,4.1176,4.1177,4.1178,4.1215,0,4.0783,4.0842,4.0863,4.0912,4.0942,4.0957,4.0985,4.1013,4.1032,4.106,4.108,4.1111,4.1109,4.1122,4.1143,4.1164,4.1186,4.1162,4.1201,4.1202,4.1192,4.1229,4.1229,4.1262,4.122,4.122,4.1221,0,4.0824,4.0856,4.0908,4.0949,4.0962,4.0987,4.1024,4.1051,4.1083,4.1096,4.112,4.1132,4.1166,4.1157,4.1205,4.1188,4.1205,4.1218,4.122,4.1224,4.1212,4.1234,4.1273,4.1278,4.1229,4.1228,4.1228,0,4.0831,4.0887,4.0927,4.0944,4.0991,4.1009,4.1029,4.1062,4.1083,4.1115,4.1129,4.1164,4.1182,4.1209,4.123,4.1221,4.1276,4.1268,4.1287,4.1286,4.1296,4.1295,4.1339,4.1309,4.1308,4.1308,4.1308,0,4.0861,4.0892,4.0931,4.0955,4.0991,4.1016,4.1051,4.1072,4.1101,4.1129,4.1144,4.117,4.1196,4.1226,4.1242,4.128,4.1288,4.1299,4.1302,4.1297,4.1296,4.1308,4.1306,4.131,4.1309,4.1309,4.1309,0,4.0874,4.0901,4.0945,4.0988,4.1,4.1024,4.1061,4.1085,4.1106,4.1141,4.1151,4.1183,4.1219,4.1243,4.1288,4.1299,4.134,4.1344,4.133,4.1331,4.1349,4.1347,4.1402,4.1411,4.1374,4.1375,4.1375,0,4.089,4.0916,4.0962,4.0984,4.1005,4.1038,4.1061,4.1087,4.111,4.1152,4.1171,4.1208,4.1239,4.1296,4.1322,4.1357,4.1362,4.1379,4.1367,4.1361,4.1362,4.136,4.1363,4.138,4.138,4.138,4.1381,0,4.0918,4.0931,4.0965,4.1004,4.1032,4.1063,4.1094,4.1111,4.1142,4.1167,4.1206,4.123,4.1278,4.1315,4.1353,4.1373,4.1382,4.1385,4.1391,4.1385,4.1376,4.1382,4.1335,4.1383,4.1383,4.1382,4.1382,4.1382,4.0934,4.0958,4.0996,4.1033,4.106,4.109,4.1115,4.1141,4.1174,4.1216,4.1229,4.1269,4.1303,4.1356,4.1377,4.1409,4.1407,4.1416,4.1418,4.142,4.142,4.1372,4.1416,4.1416,4.1416,4.1416,4.1415,0,4.0963,4.0989,4.1023,4.1068,4.1098,4.1107,4.1143,4.1166,4.1202,4.1234,4.1266,4.1311,4.1347,4.1378,4.1416,4.1436,4.1441,4.1445,4.1443,4.1448,4.1419,4.141,4.144,4.144,4.144,4.144,4.144,4.144,4.0981,4.1023,4.1041,4.1097,4.1122,4.1163,4.1183,4.1211,4.1237,4.1287,4.1319,4.1339,4.1371,4.1413,4.1447,4.1455,4.1468,4.1471,4.148,4.1452,4.145,4.1447,4.1439,4.1474,4.1474,4.1507,4.1507,4.1507]}]]